1494018000.1,49741,15.44,73638.5,0.19,-0.57,-0.57,0,*4A
1494018001.3,49742,15.44,73636.3,0.21,-0.57,-0.57,0,*42
1494018002.49,49743,15.44,73634.8,0.21,-0.65,-0.65,0,*43
1494018003.69,49744,15.44,73632.3,0.21,-0.65,-0.57,0,*45
1494018004.89,49745,15.44,73632.8,0.21,-0.57,-0.57,0,*45
1494018006.09,49746,15.44,73634.8,0.21,-0.65,-0.65,0,*46
1494018007.28,49747,15.44,73634.5,0.21,-0.65,-0.57,0,*46
1494018008.48,49748,15.44,73632.3,0.21,-0.57,-0.65,0,*49
1494018009.68,49749,15.44,73638.8,0.21,-0.65,-0.57,0,*48
1494018010.88,49750,15.44,73632.0,0.21,-0.57,-0.57,0,*41
1494018012.07,49751,15.44,73634.8,0.21,-0.65,-0.65,0,*40
1494018013.27,49752,15.44,73636.0,0.21,-0.57,-0.65,0,*42
1494018014.47,49753,15.44,73632.3,0.21,-0.57,-0.65,0,*43
1494018015.64,49754,15.44,73634.5,0.19,-0.65,-0.65,0,*4E
1494018016.82,49755,15.44,73634.0,0.19,-0.65,-0.57,0,*4E
1494018018.02,49756,15.44,73632.5,0.21,-0.57,-0.57,0,*47
1494018019.21,49757,15.44,73634.8,0.21,-0.57,-0.57,0,*46
1494018020.41,49758,15.44,73634.5,0.21,-0.65,-0.65,0,*49
1494018021.59,49759,15.44,73632.8,0.19,-0.65,-0.57,0,*42
1494018022.79,49760,15.44,73634.3,0.21,-0.57,-0.57,0,*42
1494018023.99,49761,15.44,73638.8,0.21,-0.57,-0.57,0,*43
1494018025.16,49762,15.44,73638.0,0.19,-0.65,-0.65,0,*4B
1494018026.36,49763,15.44,73634.5,0.21,-0.57,-0.57,0,*41
1494018027.55,49764,15.44,73634.3,0.21,-0.57,-0.65,0,*47
1494018028.73,49765,15.44,73638.8,0.19,-0.65,-0.65,0,*4C
1494018029.9,49766,15.44,73638.5,0.19,-0.57,-0.57,0,*4F
1494018031.1,49767,15.44,73636.0,0.21,-0.69,-0.65,0,*49
1494018032.29,49768,15.44,73634.5,0.21,-0.65,-0.65,0,*4A
1494018033.49,49769,15.44,73636.5,0.21,-0.57,-0.65,0,*4A
1494018034.69,49770,15.44,73634.5,0.21,-0.65,-0.65,0,*43
1494018035.89,49771,15.44,73636.0,0.21,-0.57,-0.57,0,*42
1494018037.08,49772,15.44,73632.8,0.21,-0.57,-0.57,0,*41
1494018038.28,49773,15.44,73636.3,0.21,-0.57,-0.65,0,*41
1494018039.48,49774,15.44,73636.0,0.21,-0.57,-0.57,0,*47
1494018040.68,49775,15.44,73638.3,0.21,-0.57,-0.57,0,*46
1494018041.88,49776,15.44,73630.5,0.21,-0.53,-0.49,0,*4E
1494018043.06,49777,15.44,73628.0,0.23,-0.49,-0.49,0,*46
1494018044.26,49778,15.44,73634.5,0.21,-0.53,-0.53,0,*4B
1494018045.44,49779,15.44,73632.3,0.23,-0.49,-0.49,0,*48
1494018046.61,49780,15.44,73628.5,0.23,-0.49,-0.49,0,*4E
1494018047.79,49781,15.44,73632.5,0.23,-0.49,-0.49,0,*4F
1494018048.96,49782,15.44,73636.3,0.23,-0.49,-0.49,0,*4C
1494018050.14,49783,15.44,73628.5,0.23,-0.49,-0.49,0,*4D
1494018051.32,49784,15.44,73634.5,0.23,-0.53,-0.49,0,*41
1494018052.5,49785,15.44,73634.5,0.23,-0.53,-0.53,0,*4B
1494018053.67,49786,15.44,73630.8,0.23,-0.61,-0.53,0,*49
1494018054.84,49787,15.44,73634.3,0.23,-0.53,-0.61,0,*48
1494018056.01,49788,15.44,73634.5,0.23,-0.53,-0.53,0,*46
1494018057.19,49789,15.44,73632.3,0.23,-0.53,-0.53,0,*47
1494018058.36,49790,15.44,73630.5,0.23,-0.53,-0.53,0,*4F
1494018059.53,49791,15.44,73632.3,0.23,-0.49,-0.61,0,*44
1494018060.71,49792,15.44,73628.8,0.23,-0.49,-0.49,0,*4D
1494018061.89,49793,15.44,73630.5,0.23,-0.49,-0.49,0,*4C
1494018063.07,49794,15.44,73632.3,0.23,-0.53,-0.49,0,*40
1494018064.25,49795,15.44,73636.3,0.23,-0.53,-0.49,0,*41
1494018065.45,49796,15.44,73634.0,0.21,-0.57,-0.53,0,*4F
1494018066.65,49797,15.44,73632.3,0.21,-0.65,-0.57,0,*4B
1494018067.82,49798,15.44,73628.0,0.23,-0.53,-0.53,0,*47
1494018069.0,49799,15.44,73628.8,0.23,-0.53,-0.49,0,*4D
1494018070.18,49800,15.44,73634.3,0.23,-0.53,-0.49,0,*42
1494018071.36,49801,15.44,73634.0,0.23,-0.53,-0.49,0,*43
1494018072.54,49802,15.44,73636.5,0.23,-0.53,-0.45,0,*4C
1494018073.71,49803,15.44,73634.8,0.23,-0.53,-0.53,0,*4A
1494018074.89,49804,15.44,73634.3,0.23,-0.53,-0.53,0,*4D
1494018076.06,49805,15.44,73630.0,0.23,-0.53,-0.53,0,*4C
1494018077.24,49806,15.44,73628.5,0.23,-0.53,-0.53,0,*4F
1494018078.42,49807,15.44,73632.3,0.27,-0.57,-0.49,0,*45
1494018079.59,49808,15.44,73628.5,0.23,-0.53,-0.53,0,*41
1494018080.77,49809,15.44,73630.5,0.23,-0.53,-0.53,0,*40
1494018081.95,49810,15.44,73630.0,0.23,-0.53,-0.53,0,*48
1494018083.12,49811,15.44,73634.3,0.23,-0.53,-0.61,0,*48
1494018084.29,49812,15.44,73634.0,0.23,-0.61,-0.53,0,*4B
1494018085.46,49813,15.44,73628.3,0.23,-0.53,-0.53,0,*4B
1494018086.63,49814,15.44,73632.0,0.23,-0.53,-0.61,0,*4D
1494018087.81,49815,15.44,73634.3,0.23,-0.49,-0.49,0,*4D
1494018089.01,49816,15.44,73636.3,0.21,-0.57,-0.65,0,*4D
1494018090.21,49817,15.44,73632.8,0.21,-0.57,-0.57,0,*4D
1494018091.41,49818,15.44,73634.8,0.21,-0.57,-0.57,0,*42
1494018092.61,49819,15.44,73636.0,0.21,-0.65,-0.57,0,*42
1494018093.8,49820,15.44,73636.0,0.21,-0.57,-0.57,0,*49
1494018095.01,49821,15.44,73632.0,0.21,-0.57,-0.57,0,*48
1494018096.2,49822,15.44,73634.5,0.21,-0.57,-0.57,0,*4B
1494018097.38,49823,15.44,73634.8,0.23,-0.53,-0.53,0,*48
1494018098.55,49824,15.44,73634.8,0.23,-0.61,-0.53,0,*4E
1494018099.72,49825,15.44,73632.0,0.23,-0.53,-0.61,0,*4F
1494018100.9,49826,15.44,73636.0,0.23,-0.53,-0.53,0,*4D
1494018102.07,49827,15.44,73634.8,0.23,-0.49,-0.49,0,*4C
1494018103.24,49828,15.44,73638.3,0.23,-0.49,-0.53,0,*48
1494018104.42,49829,15.44,73636.0,0.23,-0.61,-0.53,0,*43
1494018105.59,49830,15.44,73632.3,0.23,-0.53,-0.61,0,*4B
1494018106.76,49831,15.44,73638.3,0.23,-0.53,-0.53,0,*4B
1494018107.94,49832,15.44,73638.8,0.23,-0.53,-0.53,0,*48
1494018109.11,49833,15.44,73636.5,0.23,-0.53,-0.53,0,*49
1494018110.29,49834,15.44,73636.3,0.23,-0.53,-0.53,0,*4E
1494018111.46,49835,15.44,73638.8,0.23,-0.49,-0.53,0,*44
1494018112.63,49836,15.44,73638.5,0.23,-0.49,-0.61,0,*46
1494018113.8,49837,15.44,73636.3,0.23,-0.49,-0.53,0,*46
1494018114.97,49838,15.44,73636.5,0.23,-0.49,-0.53,0,*49
1494018116.15,49839,15.44,73632.5,0.23,-0.53,-0.53,0,*43
1494018117.33,49840,15.44,73636.0,0.23,-0.53,-0.53,0,*4D
1494018118.53,49841,15.44,73636.3,0.21,-0.57,-0.57,0,*4E
1494018119.72,49842,15.44,73636.0,0.21,-0.57,-0.57,0,*4D
1494018120.92,49843,15.44,73632.3,0.21,-0.65,-0.65,0,*4C
1494018122.12,49844,15.44,73632.8,0.21,-0.57,-0.57,0,*4B
1494018123.32,49845,15.44,73634.8,0.21,-0.57,-0.53,0,*4E
1494018124.52,49846,15.44,73636.3,0.21,-0.57,-0.53,0,*4D
1494018125.72,49847,15.44,73636.3,0.21,-0.57,-0.57,0,*48
1494018126.92,49848,15.44,73638.0,0.21,-0.53,-0.57,0,*43
1494018128.12,49849,15.44,73634.8,0.21,-0.53,-0.57,0,*42
1494018129.31,49850,15.44,73634.8,0.21,-0.53,-0.57,0,*4A
1494018130.51,49851,15.44,73634.5,0.21,-0.57,-0.57,0,*4F
1494018131.71,49852,15.44,73636.0,0.21,-0.57,-0.57,0,*4C
1494018132.91,49853,15.44,73638.0,0.21,-0.57,-0.57,0,*4D
1494018134.11,49854,15.44,73638.8,0.21,-0.57,-0.57,0,*4A
1494018135.29,49855,15.44,73636.8,0.23,-0.53,-0.53,0,*49
1494018136.46,49856,15.44,73634.3,0.23,-0.53,-0.53,0,*4A
1494018137.64,49857,15.44,73634.3,0.23,-0.53,-0.53,0,*4B
1494018138.82,49858,15.44,73634.0,0.19,-0.57,-0.57,0,*4D
1494018139.99,49859,15.44,73632.3,0.23,-0.53,-0.53,0,*45
1494018141.17,49860,15.44,73632.0,0.23,-0.53,-0.53,0,*4F
1494018142.34,49861,15.44,73636.8,0.23,-0.53,-0.53,0,*4E
1494018143.51,49862,15.44,73632.3,0.23,-0.61,-0.53,0,*4C
1494018144.68,49863,15.44,73636.5,0.23,-0.61,-0.53,0,*4D
1494018145.86,49864,15.44,73634.3,0.23,-0.53,-0.53,0,*4B
1494018147.06,49865,15.44,73638.8,0.21,-0.57,-0.57,0,*48
1494018148.25,49866,15.44,73638.0,0.21,-0.57,-0.65,0,*4A
1494018149.45,49867,15.44,73636.0,0.21,-0.57,-0.57,0,*4A
1494018150.65,49868,15.44,73638.8,0.21,-0.65,-0.57,0,*44
1494018151.85,49869,15.44,73636.5,0.21,-0.65,-0.57,0,*45
1494018153.05,49870,15.44,73638.8,0.21,-0.65,-0.57,0,*4D
1494018154.24,49871,15.44,73634.5,0.21,-0.65,-0.65,0,*4D
1494018155.44,49872,15.44,73636.5,0.21,-0.65,-0.57,0,*4F
1494018156.64,49873,15.44,73632.5,0.21,-0.57,-0.65,0,*4E
1494018157.84,49874,15.44,73638.3,0.21,-0.57,-0.57,0,*48
1494018159.01,49875,15.44,73634.5,0.19,-0.65,-0.65,0,*42
1494018160.21,49876,15.44,73634.8,0.21,-0.65,-0.57,0,*4B
1494018161.4,49877,15.44,73634.3,0.21,-0.65,-0.65,0,*4B
1494018162.6,49878,15.44,73632.3,0.21,-0.57,-0.57,0,*44
1494018163.8,49879,15.44,73636.3,0.21,-0.57,-0.57,0,*45
1494018165.0,49880,15.44,73636.0,0.21,-0.65,-0.65,0,*43
1494018166.18,49881,15.44,73636.3,0.19,-0.57,-0.57,0,*49
1494018167.37,49882,15.44,73638.8,0.21,-0.65,-0.57,0,*40
1494018168.55,49883,15.44,73638.8,0.19,-0.65,-0.65,0,*4B
1494018169.75,49884,15.44,73636.3,0.21,-0.65,-0.57,0,*46
1494018170.94,49885,15.44,73636.3,0.21,-0.65,-0.57,0,*47
1494018172.14,49886,15.44,73640.3,0.21,-0.57,-0.65,0,*44
1494018173.34,49887,15.44,73634.3,0.21,-0.65,-0.65,0,*44
1494018174.53,49888,15.44,73632.3,0.21,-0.65,-0.65,0,*4B
1494018175.71,49889,15.44,73634.3,0.19,-0.65,-0.57,0,*40
1494018176.91,49890,15.44,73638.0,0.21,-0.57,-0.57,0,*42
1494018178.11,49891,15.44,73642.0,0.21,-0.57,-0.57,0,*43
1494018179.31,49892,15.44,73634.8,0.21,-0.57,-0.57,0,*40
1494018180.48,49893,15.44,73638.0,0.19,-0.57,-0.65,0,*4B
1494018181.65,49894,15.44,73636.8,0.19,-0.65,-0.65,0,*4D
1494018182.85,49895,15.44,73642.5,0.21,-0.65,-0.69,0,*4B
1494018184.05,49896,15.44,73638.5,0.21,-0.57,-0.57,0,*44
1494018185.25,49897,15.44,73636.8,0.21,-0.65,-0.57,0,*44
1494018186.45,49898,15.44,73636.8,0.21,-0.57,-0.57,0,*4A
1494018187.65,49899,15.44,73636.8,0.21,-0.57,-0.57,0,*4B
1494018188.85,49900,15.44,73638.0,0.21,-0.65,-0.57,0,*4B
1494018190.02,49901,15.44,73632.5,0.19,-0.57,-0.57,0,*40
1494018191.22,49902,15.44,73638.3,0.21,-0.65,-0.65,0,*48
1494018192.42,49903,15.44,73634.0,0.21,-0.57,-0.57,0,*49
1494018193.59,49904,15.44,73632.0,0.19,-0.57,-0.57,0,*45
1494018194.77,49905,15.44,73634.0,0.19,-0.65,-0.57,0,*45
1494018195.95,49906,15.44,73636.3,0.19,-0.65,-0.57,0,*46
1494018197.14,49907,15.44,73636.0,0.21,-0.57,-0.65,0,*4C
1494018198.34,49908,15.44,73640.8,0.21,-0.57,-0.65,0,*43
1494018199.51,49909,15.44,73638.3,0.19,-0.57,-0.65,0,*49
1494018200.71,49910,15.44,73638.3,0.21,-0.57,-0.65,0,*4A
1494018201.9,49911,15.44,73638.3,0.21,-0.57,-0.65,0,*4B
1494018203.1,49912,15.44,73638.8,0.21,-0.65,-0.65,0,*49
1494018204.3,49913,15.44,73636.8,0.21,-0.65,-0.57,0,*49
1494018205.49,49914,15.44,73642.0,0.21,-0.65,-0.65,0,*4F
1494018206.69,49915,15.44,73634.8,0.21,-0.65,-0.57,0,*4F
1494018207.86,49916,15.44,73638.5,0.19,-0.65,-0.65,0,*46
1494018209.06,49917,15.44,73640.0,0.21,-0.65,-0.57,0,*4D
1494018210.26,49918,15.44,73638.0,0.21,-0.57,-0.57,0,*43
1494018211.46,49919,15.44,73632.5,0.21,-0.57,-0.57,0,*42
1494018212.64,49920,15.44,73636.5,0.19,-0.57,-0.57,0,*43
1494018213.84,49921,15.44,73638.5,0.21,-0.57,-0.57,0,*49
1494018215.01,49922,15.44,73636.5,0.19,-0.57,-0.57,0,*41
1494018216.21,49923,15.44,73638.3,0.21,-0.57,-0.57,0,*4B
1494018217.41,49924,15.44,73638.5,0.21,-0.57,-0.57,0,*4C
1494018218.61,49925,15.44,73638.3,0.21,-0.57,-0.57,0,*4D
1494018219.81,49926,15.44,73636.5,0.21,-0.57,-0.57,0,*4E
1494018220.99,49927,15.44,73636.8,0.19,-0.57,-0.57,0,*44
1494018222.19,49928,15.44,73638.3,0.21,-0.57,-0.57,0,*40
1494018223.39,49929,15.44,73636.0,0.21,-0.65,-0.57,0,*40
1494018224.59,49930,15.44,73634.3,0.21,-0.57,-0.57,0,*49
1494018225.78,49931,15.44,73636.5,0.21,-0.57,-0.65,0,*49
1494018226.98,49932,15.44,73636.3,0.21,-0.57,-0.57,0,*4B
1494018228.18,49933,15.44,73638.8,0.21,-0.65,-0.57,0,*4B
1494018229.38,49934,15.44,73636.8,0.21,-0.57,-0.65,0,*4C
1494018230.57,49935,15.44,73636.5,0.21,-0.65,-0.65,0,*4C
1494018231.77,49936,15.44,73638.5,0.19,-0.27,-0.29,0,*4A
1494018232.94,49937,15.44,73638.0,0.19,-0.49,-0.53,0,*4E
1494018234.14,49938,15.44,73638.5,0.21,-0.57,-0.57,0,*41
1494018235.34,49939,15.44,73636.5,0.21,-0.65,-0.57,0,*41
1494018236.52,49940,15.44,73636.0,0.19,-0.57,-0.57,0,*45
1494018237.72,49941,15.44,73636.5,0.21,-0.65,-0.57,0,*4E
1494018238.91,49942,15.44,73640.0,0.21,-0.57,-0.65,0,*4D
1494018240.09,49943,15.44,73636.5,0.19,-0.57,-0.57,0,*46
1494018241.26,49944,15.44,73634.0,0.19,-0.57,-0.57,0,*41
1494018242.44,49945,15.44,73636.3,0.19,-0.57,-0.57,0,*40
1494018243.64,49946,15.44,73638.5,0.21,-0.57,-0.57,0,*48
1494018244.84,49947,15.44,73634.0,0.21,-0.65,-0.57,0,*48
1494018246.02,49948,15.44,73634.5,0.19,-0.65,-0.57,0,*4C
1494018247.21,49949,15.44,73636.8,0.21,-0.57,-0.65,0,*46
1494018248.41,49950,15.44,73636.0,0.21,-0.57,-0.57,0,*4F
1494018249.59,49951,15.44,73638.0,0.19,-0.57,-0.57,0,*45
1494018250.79,49952,15.44,73634.8,0.21,-0.57,-0.57,0,*4D
1494018251.96,49953,15.44,73636.5,0.19,-0.57,-0.57,0,*47
1494018253.16,49954,15.44,73634.5,0.21,-0.57,-0.57,0,*4B
1494018254.36,49955,15.44,73638.8,0.21,-0.57,-0.57,0,*4A
1494018255.54,49956,15.44,73642.3,0.19,-0.57,-0.57,0,*42
1494018256.74,49957,15.44,73638.8,0.21,-0.57,-0.57,0,*48
1494018257.94,49958,15.44,73636.3,0.21,-0.57,-0.57,0,*47
1494018259.13,49959,15.44,73638.8,0.21,-0.65,-0.65,0,*46
1494018260.33,49960,15.44,73636.0,0.21,-0.57,-0.65,0,*4D
1494018261.53,49961,15.44,73642.0,0.21,-0.57,-0.57,0,*4D
1494018262.7,49962,15.44,73644.5,0.19,-0.65,-0.57,0,*44
1494018263.9,49963,15.44,73640.3,0.21,-0.57,-0.65,0,*4E
1494018265.1,49964,15.44,73644.5,0.21,-0.57,-0.57,0,*48
1494018266.3,49965,15.44,73642.0,0.21,-0.57,-0.57,0,*49
1494018267.5,49966,15.44,73640.5,0.21,-0.65,-0.57,0,*4B
1494018268.69,49967,15.44,73644.3,0.21,-0.57,-0.65,0,*4A
1494018269.89,49968,15.44,73640.0,0.21,-0.57,-0.57,0,*44
1494018271.07,49969,15.44,73642.5,0.19,-0.65,-0.57,0,*4F
1494018272.27,49970,15.44,73640.5,0.21,-0.57,-0.57,0,*4D
1494018273.44,49971,15.44,73640.3,0.19,-0.65,-0.65,0,*47
1494018274.64,49972,15.44,73636.3,0.21,-0.65,-0.65,0,*4F
1494018275.81,49973,15.44,73642.3,0.19,-0.57,-0.57,0,*45
1494018276.99,49974,15.44,73642.3,0.19,-0.57,-0.57,0,*42
1494018278.16,49975,15.44,73640.8,0.19,-0.57,-0.57,0,*43
1494018279.36,49976,15.44,73640.3,0.21,-0.65,-0.57,0,*4A
1494018280.54,49977,15.44,73638.0,0.19,-0.57,-0.57,0,*41
1494018281.74,49978,15.44,73642.5,0.21,-0.57,-0.57,0,*45
1494018282.94,49979,15.44,73636.5,0.21,-0.65,-0.57,0,*45
1494018284.14,49980,15.44,73636.0,0.21,-0.57,-0.57,0,*42
1494018285.34,49981,15.44,73638.8,0.21,-0.65,-0.53,0,*46
1494018286.51,49982,15.44,73640.5,0.19,-0.57,-0.57,0,*4B
1494018287.69,49983,15.44,73636.5,0.19,-0.57,-0.57,0,*4A
1494018288.86,49984,15.44,73636.5,0.19,-0.57,-0.65,0,*4C
1494018290.06,49985,15.44,73636.0,0.21,-0.57,-0.65,0,*46
1494018291.26,49986,15.44,73638.5,0.21,-0.57,-0.57,0,*44
1494018292.43,49987,15.44,73638.3,0.19,-0.57,-0.57,0,*4E
1494018293.63,49988,15.44,73634.5,0.21,-0.65,-0.57,0,*4B
1494018294.83,49989,15.44,73636.8,0.21,-0.57,-0.57,0,*4B
1494018296.01,49990,15.44,73638.8,0.19,-0.57,-0.57,0,*48
1494018297.21,49991,15.44,73638.3,0.21,-0.57,-0.57,0,*42
1494018298.38,49992,15.44,73634.8,0.19,-0.57,-0.57,0,*4A
1494018299.58,49993,15.44,73632.3,0.21,-0.57,-0.57,0,*40
1494018300.78,49994,15.44,73638.0,0.21,-0.49,-0.49,0,*47
1494018301.96,49995,15.44,73638.8,0.19,-0.49,-0.37,0,*44
1494018303.13,49996,15.44,73636.8,0.19,-0.49,-0.53,0,*45
1494018304.31,49997,15.44,73638.8,0.19,-0.53,-0.53,0,*4F
1494018305.49,49998,15.44,73636.5,0.19,-0.53,-0.53,0,*40
1494018306.68,49999,15.44,73636.5,0.21,-0.53,-0.53,0,*4A
1494018307.86,50000,15.44,73640.8,0.19,-0.53,-0.53,0,*40
1494018309.06,50001,15.44,73638.8,0.21,-0.53,-0.53,0,*4A
1494018310.26,50002,15.44,73638.0,0.21,-0.53,-0.53,0,*49
1494018311.45,50003,15.44,73636.5,0.21,-0.53,-0.57,0,*4C
1494018312.63,50004,15.44,73640.5,0.19,-0.53,-0.57,0,*40
1494018313.81,50005,15.44,73638.3,0.19,-0.53,-0.57,0,*41
1494018315.01,50006,15.44,73636.3,0.21,-0.53,-0.57,0,*49
1494018316.2,50007,15.44,73634.5,0.21,-0.53,-0.57,0,*48
1494018317.38,50008,15.44,73638.0,0.19,-0.53,-0.57,0,*4C
1494018318.58,50009,15.44,73638.3,0.21,-0.57,-0.57,0,*42
1494018319.76,50010,15.44,73636.8,0.19,-0.57,-0.57,0,*41
1494018320.93,50011,15.44,73636.0,0.19,-0.53,-0.53,0,*40
1494018322.13,50012,15.44,73634.8,0.21,-0.53,-0.53,0,*48
1494018323.33,50013,15.44,73636.0,0.21,-0.57,-0.57,0,*49
1494018324.53,50014,15.44,73636.8,0.21,-0.57,-0.57,0,*4E
1494018325.73,50015,15.44,73636.0,0.21,-0.57,-0.53,0,*4B
1494018326.9,50016,15.44,73636.0,0.19,-0.57,-0.53,0,*43
1494018328.1,50017,15.44,73634.3,0.21,-0.57,-0.53,0,*49
1494018329.28,50018,15.44,73632.5,0.19,-0.53,-0.53,0,*49
1494018330.48,50019,15.44,73634.8,0.21,-0.57,-0.53,0,*47
1494018331.65,50020,15.44,73640.3,0.19,-0.57,-0.53,0,*46
1494018332.85,50021,15.44,73644.8,0.21,-0.53,-0.53,0,*48
1494018334.05,50022,15.44,73638.3,0.21,-0.53,-0.53,0,*4B
1494018335.23,50023,15.44,73640.0,0.19,-0.53,-0.57,0,*45
1494018336.42,50024,15.44,73644.3,0.21,-0.57,-0.65,0,*4C
1494018337.62,50025,15.44,73644.0,0.21,-0.57,-0.57,0,*4C
1494018338.82,50026,15.44,73646.5,0.21,-0.57,-0.57,0,*4F
1494018340.0,50027,15.44,73640.0,0.19,-0.57,-0.53,0,*41
1494018341.2,50028,15.44,73642.8,0.21,-0.57,-0.53,0,*45
1494018342.4,50029,15.44,73642.0,0.21,-0.53,-0.53,0,*40
1494018343.59,50030,15.44,73640.8,0.21,-0.49,-0.53,0,*43
1494018344.77,50031,15.44,73640.0,0.19,-0.53,-0.53,0,*42
1494018345.97,50032,15.44,73642.3,0.21,-0.53,-0.53,0,*4A
1494018347.17,50033,15.44,73640.5,0.21,-0.53,-0.53,0,*4B
1494018348.36,50034,15.44,73640.0,0.21,-0.53,-0.53,0,*4C
1494018349.56,50035,15.44,73642.8,0.21,-0.65,-0.57,0,*4C
1494018350.76,50036,15.44,73640.0,0.21,-0.57,-0.57,0,*4E
1494018351.96,50037,15.44,73642.8,0.21,-0.57,-0.57,0,*4F
1494018353.16,50038,15.44,73640.0,0.21,-0.57,-0.53,0,*44
1494018354.36,50039,15.44,73636.3,0.21,-0.53,-0.49,0,*4A
1494018355.54,50040,15.44,73640.0,0.23,-0.49,-0.49,0,*4D
1494018356.72,50041,15.44,73636.0,0.23,-0.53,-0.49,0,*47
1494018357.92,50042,15.44,73634.5,0.21,-0.57,-0.53,0,*49
1494018359.12,50043,15.44,73638.3,0.21,-0.57,-0.53,0,*48
1494018360.32,50044,15.44,73632.3,0.21,-0.57,-0.53,0,*4F
1494018361.52,50045,15.44,73634.0,0.21,-0.57,-0.53,0,*4E
1494018362.72,50046,15.44,73634.3,0.21,-0.57,-0.53,0,*4D
1494018363.89,50047,15.44,73634.3,0.19,-0.57,-0.53,0,*47
1494018365.09,50048,15.44,73634.8,0.21,-0.57,-0.53,0,*43
1494018366.29,50049,15.44,73634.3,0.21,-0.57,-0.57,0,*46
1494018367.49,50050,15.44,73636.5,0.21,-0.57,-0.57,0,*4E
1494018368.69,50051,15.44,73636.3,0.21,-0.57,-0.57,0,*4F
1494018369.89,50052,15.44,73632.0,0.21,-0.57,-0.57,0,*4C
1494018371.09,50053,15.44,73638.0,0.21,-0.57,-0.57,0,*4D
1494018372.29,50054,15.44,73632.8,0.21,-0.57,-0.57,0,*4A
1494018373.49,50055,15.44,73638.3,0.21,-0.57,-0.57,0,*4B
1494018374.68,50056,15.44,73642.5,0.21,-0.57,-0.65,0,*49
1494018375.86,50057,15.44,73636.0,0.23,-0.49,-0.53,0,*40
1494018377.03,50058,15.44,73636.8,0.23,-0.49,-0.53,0,*4F
1494018378.23,50059,15.44,73642.8,0.21,-0.53,-0.57,0,*43
1494018379.43,50060,15.44,73638.5,0.21,-0.53,-0.57,0,*49
1494018380.63,50061,15.44,73636.8,0.21,-0.53,-0.57,0,*48
1494018381.8,50062,15.44,73638.0,0.23,-0.49,-0.53,0,*46
1494018383.0,50063,15.44,73638.5,0.21,-0.53,-0.57,0,*4A
1494018384.2,50064,15.44,73638.0,0.21,-0.53,-0.57,0,*4D
1494018385.39,50065,15.44,73642.0,0.21,-0.53,-0.53,0,*48
1494018386.59,50066,15.44,73640.5,0.21,-0.53,-0.53,0,*4B
1494018387.79,50067,15.44,73642.3,0.21,-0.53,-0.53,0,*4A
1494018388.99,50068,15.44,73642.0,0.21,-0.53,-0.53,0,*45
1494018390.17,50069,15.44,73642.8,0.27,-0.45,-0.45,0,*42
1494018391.35,50070,15.44,73640.3,0.23,-0.53,-0.49,0,*45
1494018392.54,50071,15.44,73642.8,0.21,-0.57,-0.53,0,*49
1494018393.72,50072,15.44,73646.8,0.23,-0.53,-0.53,0,*4C
1494018394.9,50073,15.44,73648.8,0.23,-0.49,-0.49,0,*4D
1494018396.07,50074,15.44,73648.8,0.23,-0.49,-0.49,0,*4A
1494018397.25,50075,15.44,73642.3,0.23,-0.53,-0.53,0,*4B
1494018398.42,50076,15.44,73640.3,0.23,-0.53,-0.53,0,*48
1494018399.6,50077,15.44,73642.5,0.27,-0.49,-0.45,0,*41
1494018400.77,50078,15.44,73642.8,0.23,-0.53,-0.53,0,*46
1494018401.95,50079,15.44,73642.8,0.23,-0.53,-0.53,0,*47
1494018403.12,50080,15.44,73644.0,0.23,-0.53,-0.53,0,*41
1494018404.3,50081,15.44,73642.8,0.23,-0.53,-0.53,0,*40
1494018405.48,50082,15.44,73642.0,0.23,-0.53,-0.53,0,*43
1494018406.65,50083,15.44,73636.0,0.23,-0.49,-0.53,0,*49
1494018407.82,50084,15.44,73640.0,0.23,-0.49,-0.53,0,*4E
1494018408.99,50085,15.44,73640.8,0.23,-0.49,-0.53,0,*4F
1494018410.17,50086,15.44,73644.0,0.23,-0.49,-0.53,0,*4C
1494018411.34,50087,15.44,73640.8,0.23,-0.49,-0.49,0,*46
1494018412.52,50088,15.44,73644.5,0.23,-0.49,-0.49,0,*49
1494018413.7,50089,15.44,73640.3,0.23,-0.49,-0.49,0,*48
1494018414.87,50090,15.44,73642.3,0.23,-0.49,-0.49,0,*40
1494018416.05,50091,15.44,73638.8,0.23,-0.49,-0.49,0,*41
1494018417.23,50092,15.44,73638.5,0.23,-0.49,-0.49,0,*42
1494018418.4,50093,15.44,73638.8,0.23,-0.49,-0.49,0,*43
1494018419.58,50094,15.44,73636.5,0.23,-0.49,-0.49,0,*44
1494018420.76,50095,15.44,73632.5,0.23,-0.45,-0.49,0,*49
1494018421.94,50096,15.44,73632.5,0.27,-0.45,-0.49,0,*4E
1494018423.11,50097,15.44,73632.0,0.23,-0.49,-0.49,0,*47
1494018424.29,50098,15.44,73632.5,0.23,-0.49,-0.49,0,*48
1494018425.47,50099,15.44,73634.5,0.23,-0.49,-0.49,0,*49
1494018426.64,50100,15.44,73638.0,0.27,-0.49,-0.45,0,*40
1494018427.82,50101,15.44,73632.3,0.23,-0.53,-0.53,0,*49
1494018428.99,50102,15.44,73634.0,0.27,-0.53,-0.53,0,*4E
1494018430.16,50103,15.44,73630.0,0.23,-0.61,-0.53,0,*4A
1494018431.34,50104,15.44,73634.5,0.23,-0.53,-0.53,0,*4C
1494018432.51,50105,15.44,73632.3,0.23,-0.53,-0.61,0,*4C
1494018433.68,50106,15.44,73632.3,0.23,-0.53,-0.53,0,*4E
1494018434.86,50107,15.44,73638.5,0.27,-0.49,-0.49,0,*4B
1494018436.04,50108,15.44,73636.3,0.23,-0.53,-0.53,0,*40
1494018437.21,50109,15.44,73634.3,0.27,-0.49,-0.49,0,*45
1494018438.39,50110,15.44,73638.8,0.23,-0.53,-0.53,0,*49
1494018439.56,50111,15.44,73640.5,0.23,-0.53,-0.53,0,*48
1494018440.74,50112,15.44,73640.8,0.23,-0.53,-0.53,0,*4B
1494018441.91,50113,15.44,73638.3,0.23,-0.53,-0.53,0,*4A
1494018443.09,50114,15.38,73634.8,0.23,-0.53,-0.53,0,*4D
1494018444.26,50115,15.44,73636.5,0.23,-0.53,-0.61,0,*4D
1494018445.44,50116,15.44,73638.8,0.23,-0.53,-0.53,0,*4F
1494018446.61,50117,15.44,73630.8,0.23,-0.53,-0.53,0,*4E
1494018447.81,50118,15.44,73634.5,0.21,-0.57,-0.57,0,*43
1494018449.01,50119,15.44,73634.8,0.21,-0.57,-0.57,0,*42
1494018450.19,50120,15.44,73634.3,0.23,-0.53,-0.53,0,*4A
1494018451.37,50121,15.44,73638.5,0.23,-0.53,-0.49,0,*40
1494018452.55,50122,15.44,73640.0,0.23,-0.53,-0.49,0,*43
1494018453.73,50123,15.44,73636.8,0.23,-0.53,-0.49,0,*42
1494018454.91,50124,15.44,73636.0,0.23,-0.53,-0.49,0,*45
1494018456.09,50125,15.44,73638.8,0.23,-0.53,-0.49,0,*44
1494018457.26,50126,15.44,73638.0,0.27,-0.49,-0.45,0,*44
1494018458.44,50127,15.44,73638.0,0.23,-0.53,-0.49,0,*46
1494018459.62,50128,15.44,73634.3,0.23,-0.53,-0.49,0,*49
1494018460.79,50129,15.44,73634.5,0.27,-0.49,-0.45,0,*4B
1494018461.97,50130,15.44,73636.5,0.23,-0.53,-0.49,0,*40
1494018463.15,50131,15.44,73636.0,0.23,-0.53,-0.49,0,*41
1494018464.33,50132,15.44,73636.3,0.23,-0.49,-0.49,0,*49
1494018465.5,50133,15.44,73638.0,0.23,-0.49,-0.49,0,*48
1494018466.68,50134,15.38,73632.8,0.27,-0.45,-0.45,0,*4B
1494018467.86,50135,15.44,73642.3,0.23,-0.53,-0.53,0,*4E
1494018469.03,50136,15.44,73640.8,0.27,-0.49,-0.49,0,*49
1494018470.21,50137,15.44,73638.8,0.23,-0.53,-0.53,0,*4C
1494018471.38,50138,15.44,73642.3,0.27,-0.49,-0.53,0,*4C
1494018472.55,50139,15.44,73638.3,0.23,-0.53,-0.53,0,*42
1494018473.73,50140,15.44,73642.5,0.23,-0.49,-0.49,0,*4C
1494018474.91,50141,15.44,73640.3,0.23,-0.45,-0.45,0,*4D
1494018476.08,50142,15.44,73640.0,0.27,-0.49,-0.49,0,*4A
1494018477.26,50143,15.44,73642.3,0.23,-0.45,-0.45,0,*4F
1494018478.43,50144,15.44,73638.0,0.27,-0.49,-0.53,0,*47
1494018479.6,50145,15.38,73634.8,0.23,-0.49,-0.53,0,*42
1494018480.78,50146,15.44,73642.0,0.23,-0.49,-0.53,0,*41
1494018481.95,50147,15.44,73642.0,0.23,-0.49,-0.53,0,*40
1494018483.12,50148,15.44,73640.0,0.23,-0.49,-0.53,0,*4F
1494018484.3,50149,15.44,73638.0,0.23,-0.53,-0.53,0,*45
1494018485.47,50150,15.44,73638.3,0.23,-0.53,-0.53,0,*4D
1494018486.65,50151,15.44,73640.3,0.23,-0.53,-0.53,0,*4C
1494018487.82,50152,15.44,73638.0,0.23,-0.49,-0.53,0,*44
1494018489.0,50153,15.38,73636.8,0.27,-0.45,-0.45,0,*4A
1494018490.18,50154,15.44,73642.0,0.23,-0.53,-0.49,0,*42
1494018491.36,50155,15.44,73640.0,0.23,-0.53,-0.49,0,*43
1494018492.53,50156,15.44,73640.8,0.27,-0.49,-0.49,0,*4F
1494018493.71,50157,15.38,73632.5,0.23,-0.53,-0.53,0,*4A
1494018494.88,50158,15.44,73640.3,0.23,-0.53,-0.53,0,*45
1494018496.06,50159,15.38,73636.3,0.27,-0.45,-0.45,0,*40
1494018497.23,50160,15.44,73644.0,0.23,-0.53,-0.45,0,*49
1494018498.41,50161,15.44,73640.3,0.23,-0.53,-0.53,0,*4F